sat.trackr.live / text

‹ back to catalog

STARLINK-36824

NORAD 67953 · 2026-037X

PAYLOAD ACTIVE UNKNOWN

§ Identity

Operator
Country
US
Launch date
2026-02-24
Launch site
AFETR
Launch vehicle
Mass (kg)
RCS (m²)

Purposes: comms

External: N2YO · Heavens-Above · Gunter

§ Orbital elements

Epoch: 2026-05-25T05:35:20.616000Z

Period
94.27 min
Inclination
43.0018°
Eccentricity
0.0001449
Mean motion
15.27568081 rev/d
Perigee alt
482.1 km
Apogee alt
484.1 km
Semi-major
6,861.2 km
B*
2.9145e-4
RAAN
118.7487°
Arg perigee
265.2718°
Mean anomaly
94.7968°
Rev number
1,504

§ Raw data

STARLINK-368241 67953U 26037X   26145.23287750  .00007764  00000+0  29145-3 0  99972 67953  43.0018 118.7487 0001449 265.2718  94.7968 15.27568081 15049

JSON: /api/v1/satellites/67953 · /tle

For live sub-satellite position, see the globe view (requires WebGL).

§ Visibility from observer

Set your observer location to see the next 7 days of passes ≥ 10°. The values pass through the URL so the page stays shareable.

No JS? Fill the form by hand. The geolocation button needs JavaScript.